ギブス彗星

P/2006 Y2 ( Gibbs )

English version
Home page
Updated on May 3, 2012

---------------------------------------------------------------------

・ プロフィール

発見日 2006年12月26日
発見光度 18.2等
発見者 A. R. Gibbs (Catalina Sky Survey)

・ 軌道要素

Epoch 2006 Dec. 11.0 TT = JDT 2454080.5
T 2006 Dec. 28.75300 TT                                 MPC
q   1.2512188            (2000.0)            P               Q
n   0.18695681     Peri.   26.30133     -0.74925503     -0.62127661
a   3.0290645      Node   113.35373     +0.55503585     -0.77803484
e   0.5869290      Incl.   14.47097     +0.36131995     -0.09315125
P   5.27
From 120 observations 2006 Nov. 10-2007 May 11, mean residual 0".6.

・ 光度変化

        m1 = 18.0 + 5 logΔ + 10.0 log r(t - 50)

---------------------------------------------------------------------

軌道要素はM.P.E.C. 2012-H90に掲載されたものです。
光度グラフはComet for Windowsで作成したものです。

---------------------------------------------------------------------

Copyright(C) Seiichi Yoshida (comet@aerith.net). All rights reserved.